,,Stat5,,Stat1,,Stat2,,Stat3,,Stat4,,Wind1,,Wind1,
time,status,PA1M_AVG,status,PR1M_SUM,status,RH1M_AVG,status,SR1M_AVG,status,TA1M_AVG,status,W1dAve1m,status,W1sAve1m,
2000-07-31, 00:00:01,VALID,918.227,VALID,0,VALID,97.7877,VALID,0,VALID,19.991,VALID,112,VALID,0.421224,
2000-07-31, 00:01:00,VALID,918.223,VALID,0,VALID,97.8144,VALID,0,VALID,19.9813,VALID,100,VALID,0.684333,
2000-07-31, 00:02:00,VALID,918.209,VALID,0,VALID,97.9428,VALID,-0.0169808,VALID,20.0074,VALID,98,VALID,0.933488,
2000-07-31, 00:03:00,VALID,918.198,VALID,0,VALID,97.8868,VALID,-0.0169808,VALID,19.9977,VALID,105,VALID,1.02404,
2000-07-31, 00:04:00,VALID,918.19,VALID,0,VALID,97.8729,VALID,0.0169808,VALID,19.9654,VALID,97,VALID,0.757601,
2000-07-31, 00:05:00,VALID,918.192,VALID,0,VALID,97.9301,VALID,0,VALID,19.9462,VALID,123,VALID,0.417188,
2000-07-31, 00:06:00,VALID,918.169,VALID,0,VALID,98.014,VALID,-0.0169808,VALID,19.9495,VALID,233,VALID,0.185404,
2000-07-31, 00:07:00,VALID,918.168,VALID,0,VALID,98.0611,VALID,0,VALID,19.9199,VALID,298,VALID,0.149671,
2000-07-31, 00:08:00,VALID,918.146,VALID,0,VALID,98.1399,VALID,0,VALID,19.9234,VALID,49,VALID,0.647204,
2000-07-31, 00:09:00,VALID,918.136,VALID,0,VALID,98.2594,VALID,-0.0339617,VALID,19.9629,VALID,100,VALID,0.625195,
2000-07-31, 00:10:00,VALID,918.129,VALID,0,VALID,98.3472,VALID,0,VALID,19.982,VALID,100,VALID,0.0361842,
2000-07-31, 00:11:00,VALID,918.116,VALID,0,VALID,98.3942,VALID,-0.0169808,VALID,19.9974,VALID,100,VALID,0,
2000-07-31, 00:12:00,VALID,918.084,VALID,0,VALID,98.4667,VALID,-0.0339617,VALID,20.037,VALID,100,VALID,0,
2000-07-31, 00:13:00,VALID,918.084,VALID,0,VALID,98.4413,VALID,-0.0169808,VALID,20.0203,VALID,100,VALID,0,
2000-07-31, 00:14:00,VALID,918.055,VALID,0,VALID,98.3383,VALID,0,VALID,20.0213,VALID,100,VALID,0.528429,
2000-07-31, 00:15:00,VALID,918.037,VALID,0,VALID,98.2556,VALID,0,VALID,19.9689,VALID,90,VALID,0.647675,
2000-07-31, 00:16:00,VALID,918.052,VALID,0,VALID,98.3866,VALID,0,VALID,19.9848,VALID,105,VALID,0.816301,
2000-07-31, 00:17:00,VALID,918.046,VALID,0,VALID,98.454,VALID,-0.0169808,VALID,19.9845,VALID,29,VALID,0.401316,
2000-07-31, 00:18:00,VALID,918.049,VALID,0,VALID,98.4464,VALID,-0.0169808,VALID,19.985,VALID,74,VALID,0.16139,
2000-07-31, 00:19:00,VALID,918.038,VALID,0,VALID,98.4286,VALID,-0.0169808,VALID,19.985,VALID,162,VALID,0,
2000-07-31, 00:20:00,VALID,918.039,VALID,0,VALID,98.4438,VALID,0,VALID,19.9788,VALID,61,VALID,0,
2000-07-31, 00:21:00,VALID,918.043,VALID,0,VALID,98.3828,VALID,0.0169808,VALID,19.9398,VALID,281,VALID,0,
2000-07-31, 00:22:00,VALID,918.03,VALID,0,VALID,98.4642,VALID,-0.0339617,VALID,19.9599,VALID,179,VALID,0,
2000-07-31, 00:23:00,VALID,918.033,VALID,0,VALID,98.5417,VALID,-0.0509425,VALID,19.9654,VALID,103,VALID,0,
2000-07-31, 00:24:00,VALID,918.026,VALID,0,VALID,98.5888,VALID,-0.0169808,VALID,19.9723,VALID,103,VALID,0,
2000-07-31, 00:25:00,VALID,918.02,VALID,0,VALID,98.5824,VALID,-0.0339617,VALID,19.9756,VALID,143,VALID,0,
2000-07-31, 00:26:00,VALID,918.012,VALID,0,VALID,98.6524,VALID,-0.0169808,VALID,19.9853,VALID,110,VALID,0,
2000-07-31, 00:27:00,VALID,918.001,VALID,0,VALID,98.6638,VALID,-0.0339617,VALID,19.9989,VALID,105,VALID,0.282072,
2000-07-31, 00:28:00,VALID,917.987,VALID,0,VALID,98.6485,VALID,-0.0339617,VALID,19.9731,VALID,59,VALID,0.750422,
2000-07-31, 00:29:00,VALID,917.995,VALID,0,VALID,98.5748,VALID,-0.0339617,VALID,19.9177,VALID,53,VALID,0.0369141,
2000-07-31, 00:30:00,VALID,917.976,VALID,0,VALID,98.6104,VALID,0,VALID,19.9045,VALID,107,VALID,0.143914,
2000-07-31, 00:31:00,VALID,917.97,VALID,0,VALID,98.7032,VALID,-0.0169808,VALID,19.9201,VALID,107,VALID,0.115017,
2000-07-31, 00:32:00,VALID,917.964,VALID,0,VALID,98.7172,VALID,0,VALID,19.9134,VALID,107,VALID,0.00211149,
2000-07-31, 00:33:00,VALID,917.952,VALID,0,VALID,98.7312,VALID,0,VALID,19.9139,VALID,107,VALID,0,
2000-07-31, 00:34:00,VALID,917.95,VALID,0,VALID,98.8113,VALID,-0.0339617,VALID,19.9631,VALID,127,VALID,0.0420496,
2000-07-31, 00:35:00,VALID,917.968,VALID,0,VALID,98.8304,VALID,-0.0169808,VALID,19.9726,VALID,109,VALID,0.618359,
2000-07-31, 00:36:00,VALID,917.971,VALID,0,VALID,98.8851,VALID,-0.0169808,VALID,19.9982,VALID,106,VALID,0.627604,
2000-07-31, 00:37:00,VALID,917.991,VALID,0,VALID,98.913,VALID,-0.0169808,VALID,20.0079,VALID,103,VALID,0.667969,
2000-07-31, 00:38:00,VALID,917.997,VALID,0,VALID,98.8634,VALID,-0.0169808,VALID,19.9855,VALID,100,VALID,0.648438,
2000-07-31, 00:39:00,VALID,917.979,VALID,0,VALID,98.7643,VALID,-0.0169808,VALID,19.9206,VALID,55,VALID,0.594922,
2000-07-31, 00:40:00,VALID,917.962,VALID,0,VALID,98.7236,VALID,0,VALID,19.8523,VALID,69,VALID,0.147204,
2000-07-31, 00:41:00,VALID,917.953,VALID,0,VALID,98.8291,VALID,-0.0169808,VALID,19.8881,VALID,95,VALID,0.617804,
2000-07-31, 00:42:00,VALID,917.943,VALID,0,VALID,98.8533,VALID,0.0169808,VALID,19.901,VALID,73,VALID,0.486909,
2000-07-31, 00:43:00,VALID,917.934,VALID,0,VALID,98.8711,VALID,-0.0169808,VALID,19.8978,VALID,90,VALID,0.404514,
2000-07-31, 00:44:00,VALID,917.932,VALID,0,VALID,98.8622,VALID,0,VALID,19.8789,VALID,91,VALID,0.704427,
2000-07-31, 00:45:00,VALID,917.926,VALID,0,VALID,98.8825,VALID,0,VALID,19.8791,VALID,85,VALID,0.918445,
2000-07-31, 00:46:00,VALID,917.916,VALID,0,VALID,98.9321,VALID,-0.0169808,VALID,19.8985,VALID,95,VALID,0.734797,
2000-07-31, 00:47:00,VALID,917.9,VALID,0,VALID,98.9486,VALID,0,VALID,19.898,VALID,91,VALID,0.579564,
2000-07-31, 00:48:00,VALID,917.899,VALID,0,VALID,99.0135,VALID,-0.0339617,VALID,19.9336,VALID,103,VALID,0.5331,
2000-07-31, 00:49:00,VALID,917.893,VALID,0,VALID,99.0135,VALID,0,VALID,19.9266,VALID,99,VALID,0.411395,
2000-07-31, 00:50:00,VALID,917.876,VALID,0,VALID,98.9614,VALID,0,VALID,19.8948,VALID,98,VALID,0.80551,
2000-07-31, 00:51:00,VALID,917.857,VALID,0,VALID,99.0109,VALID,0,VALID,19.9045,VALID,83,VALID,0.369038,
2000-07-31, 00:52:00,VALID,917.839,VALID,0,VALID,98.9817,VALID,0,VALID,19.8943,VALID,88,VALID,0.358724,
2000-07-31, 00:53:00,VALID,917.831,VALID,0,VALID,98.9639,VALID,0.0339617,VALID,19.8655,VALID,98,VALID,0.64527,
2000-07-31, 00:54:00,VALID,917.813,VALID,0,VALID,99.0275,VALID,-0.0339617,VALID,19.8883,VALID,104,VALID,0.724777,
2000-07-31, 00:55:00,VALID,917.828,VALID,0,VALID,99.0466,VALID,-0.0169808,VALID,19.9244,VALID,99,VALID,0.925576,
2000-07-31, 00:56:00,VALID,917.84,VALID,0,VALID,99.0809,VALID,-0.0169808,VALID,19.9303,VALID,101,VALID,0.709671,
2000-07-31, 00:57:00,VALID,917.839,VALID,0,VALID,99.0974,VALID,-0.0169808,VALID,19.953,VALID,101,VALID,0.0966283,
2000-07-31, 00:58:00,VALID,917.842,VALID,0,VALID,99.0682,VALID,0,VALID,19.9365,VALID,103,VALID,0,
2000-07-31, 00:59:00,VALID,917.838,VALID,0,VALID,99.0885,VALID,0,VALID,19.9204,VALID,115,VALID,0,
2000-07-31, 01:00:00,VALID,917.835,VALID,0,VALID,99.1089,VALID,0.0169808,VALID,19.9435,VALID,110,VALID,0,
2000-07-31, 01:01:00,VALID,917.839,VALID,0,VALID,99.0936,VALID,0,VALID,19.9306,VALID,110,VALID,0,
2000-07-31, 01:02:00,VALID,917.838,VALID,0,VALID,99.0898,VALID,0,VALID,19.9172,VALID,110,VALID,0,
2000-07-31, 01:03:00,VALID,917.829,VALID,0,VALID,99.0809,VALID,0,VALID,19.9174,VALID,110,VALID,0,
2000-07-31, 01:04:00,VALID,917.829,VALID,0,VALID,99.0618,VALID,0.0169808,VALID,19.908,VALID,110,VALID,0,
2000-07-31, 01:05:00,VALID,917.806,VALID,0,VALID,99.0796,VALID,0.0169808,VALID,19.9179,VALID,110,VALID,0,
2000-07-31, 01:06:00,VALID,917.802,VALID,0,VALID,99.0974,VALID,0,VALID,19.9005,VALID,120,VALID,0,
2000-07-31, 01:07:00,VALID,917.781,VALID,0,VALID,99.1076,VALID,-0.0339617,VALID,19.9308,VALID,120,VALID,0,
2000-07-31, 01:08:00,VALID,917.775,VALID,0,VALID,99.1178,VALID,-0.0339617,VALID,19.9274,VALID,120,VALID,0,
2000-07-31, 01:09:00,VALID,917.743,VALID,0,VALID,99.1127,VALID,0,VALID,19.9333,VALID,120,VALID,0,
2000-07-31, 01:10:00,VALID,917.73,VALID,0,VALID,99.1063,VALID,-0.0169808,VALID,19.9274,VALID,120,VALID,0,
2000-07-31, 01:11:00,VALID,917.703,VALID,0,VALID,99.1152,VALID,-0.0339617,VALID,19.9371,VALID,123,VALID,0,
2000-07-31, 01:12:00,VALID,917.685,VALID,0,VALID,99.0872,VALID,0,VALID,19.944,VALID,151,VALID,0,
2000-07-31, 01:13:00,VALID,917.668,VALID,0,VALID,99.0745,VALID,-0.0509425,VALID,19.9075,VALID,271,VALID,0,
2000-07-31, 01:14:00,VALID,917.64,VALID,0,VALID,99.016,VALID,0,VALID,19.8593,VALID,314,VALID,0,
2000-07-31, 01:15:00,VALID,917.614,VALID,0,VALID,99.0224,VALID,0.0169808,VALID,19.8491,VALID,357,VALID,0,
2000-07-31, 01:16:00,VALID,917.601,VALID,0,VALID,99.0961,VALID,0,VALID,19.9177,VALID,99,VALID,0.23902,
2000-07-31, 01:17:00,VALID,917.576,VALID,0,VALID,99.1254,VALID,-0.0169808,VALID,19.9433,VALID,108,VALID,0.737459,
2000-07-31, 01:18:00,VALID,917.568,VALID,0,VALID,99.1101,VALID,-0.0339617,VALID,19.9403,VALID,102,VALID,0.971834,
2000-07-31, 01:19:00,VALID,917.551,VALID,0,VALID,99.0936,VALID,-0.0169808,VALID,19.9274,VALID,106,VALID,0.70827,
2000-07-31, 01:20:00,VALID,917.529,VALID,0,VALID,99.0707,VALID,0.0169808,VALID,19.9077,VALID,109,VALID,0.286184,
2000-07-31, 01:21:00,VALID,917.511,VALID,0,VALID,99.0923,VALID,0,VALID,19.9142,VALID,109,VALID,0,
2000-07-31, 01:22:00,VALID,917.49,VALID,0,VALID,99.0974,VALID,-0.0169808,VALID,19.9306,VALID,112,VALID,0.000651042,
2000-07-31, 01:23:00,VALID,917.463,VALID,0,VALID,99.1076,VALID,0,VALID,19.9266,VALID,109,VALID,0.22614,
2000-07-31, 01:24:00,VALID,917.456,VALID,0,VALID,99.1076,VALID,0,VALID,19.9403,VALID,85,VALID,0.0863839,
2000-07-31, 01:25:00,VALID,917.445,VALID,0,VALID,99.0605,VALID,0,VALID,19.8978,VALID,91,VALID,0,
2000-07-31, 01:26:00,VALID,917.444,VALID,0,VALID,99.0211,VALID,0.0169808,VALID,19.8426,VALID,86,VALID,0,
2000-07-31, 01:27:00,VALID,917.421,VALID,0,VALID,98.9614,VALID,0.0339617,VALID,19.8103,VALID,56,VALID,0,
2000-07-31, 01:28:00,VALID,917.394,VALID,0,VALID,98.9525,VALID,0.0169808,VALID,19.7847,VALID,50,VALID,0,
2000-07-31, 01:29:00,VALID,917.364,VALID,0,VALID,98.9715,VALID,0,VALID,19.7879,VALID,50,VALID,0,
2000-07-31, 01:30:00,VALID,917.347,VALID,0,VALID,98.9842,VALID,0,VALID,19.7974,VALID,116,VALID,0,
2000-07-31, 01:31:00,VALID,917.334,VALID,0,VALID,99.0249,VALID,0.0679233,VALID,19.8133,VALID,114,VALID,0,
2000-07-31, 01:32:00,VALID,917.31,VALID,0,VALID,99.0275,VALID,0.0169808,VALID,19.8265,VALID,120,VALID,0,
2000-07-31, 01:33:00,VALID,917.302,VALID,0,VALID,99.0466,VALID,0.0339617,VALID,19.8262,VALID,74,VALID,0,
2000-07-31, 01:34:00,VALID,917.281,VALID,0,VALID,99.0389,VALID,-0.0509425,VALID,19.8312,VALID,70,VALID,0,
2000-07-31, 01:35:00,VALID,917.265,VALID,0,VALID,99.0567,VALID,-0.0679233,VALID,19.8506,VALID,98,VALID,0,
2000-07-31, 01:36:00,VALID,917.242,VALID,0,VALID,99.0822,VALID,-0.0849042,VALID,19.8767,VALID,99,VALID,0,
2000-07-31, 01:37:00,VALID,917.225,VALID,0,VALID,99.0466,VALID,-0.101885,VALID,19.8667,VALID,99,VALID,0,
2000-07-31, 01:38:00,VALID,917.207,VALID,0,VALID,99.0262,VALID,-0.101885,VALID,19.8441,VALID,99,VALID,0,
2000-07-31, 01:39:00,VALID,917.184,VALID,0,VALID,98.9715,VALID,-0.0509425,VALID,19.8347,VALID,112,VALID,0,
2000-07-31, 01:40:00,VALID,917.158,VALID,0,VALID,98.9804,VALID,-0.0509425,VALID,19.828,VALID,226,VALID,0,
2000-07-31, 01:41:00,VALID,917.146,VALID,0,VALID,98.9906,VALID,-0.101885,VALID,19.8349,VALID,231,VALID,0,
2000-07-31, 01:42:00,VALID,917.137,VALID,0,VALID,98.9525,VALID,-0.0849042,VALID,19.8053,VALID,267,VALID,0.116976,
2000-07-31, 01:43:00,VALID,917.128,VALID,0,VALID,98.9296,VALID,-0.101885,VALID,19.7852,VALID,270,VALID,0,
2000-07-31, 01:44:00,VALID,917.122,VALID,0,VALID,98.9448,VALID,-0.101885,VALID,19.7922,VALID,290,VALID,0,
2000-07-31, 01:45:00,VALID,917.13,VALID,0,VALID,98.9512,VALID,-0.101885,VALID,19.786,VALID,309,VALID,0,
2000-07-31, 01:46:00,VALID,917.118,VALID,0,VALID,98.9258,VALID,-0.0679233,VALID,19.7529,VALID,310,VALID,0,
2000-07-31, 01:47:00,VALID,917.097,VALID,0,VALID,98.8278,VALID,-0.0679233,VALID,19.692,VALID,310,VALID,0,
2000-07-31, 01:48:00,VALID,917.088,VALID,0,VALID,98.8456,VALID,-0.0679233,VALID,19.6786,VALID,291,VALID,0,
2000-07-31, 01:49:00,VALID,917.074,VALID,0,VALID,98.8584,VALID,-0.0679233,VALID,19.6756,VALID,283,VALID,0,
2000-07-31, 01:50:00,VALID,917.053,VALID,0,VALID,98.8787,VALID,-0.0509425,VALID,19.6818,VALID,289,VALID,0,
2000-07-31, 01:51:00,VALID,917.04,VALID,0,VALID,98.9194,VALID,-0.0679233,VALID,19.7243,VALID,290,VALID,0,
2000-07-31, 01:52:00,VALID,917.005,VALID,0,VALID,98.8838,VALID,-0.0679233,VALID,19.6883,VALID,290,VALID,0,
2000-07-31, 01:53:00,VALID,916.979,VALID,0,VALID,98.9054,VALID,-0.0679233,VALID,19.7049,VALID,290,VALID,0,
2000-07-31, 01:54:00,VALID,916.95,VALID,0,VALID,98.894,VALID,-0.0849042,VALID,19.692,VALID,290,VALID,0,
2000-07-31, 01:55:00,VALID,916.929,VALID,0,VALID,98.8825,VALID,-0.101885,VALID,19.6952,VALID,290,VALID,0,
2000-07-31, 01:56:00,VALID,916.918,VALID,0,VALID,98.852,VALID,-0.0849042,VALID,19.6662,VALID,293,VALID,0,
2000-07-31, 01:57:00,VALID,916.912,VALID,0,VALID,98.824,VALID,-0.101885,VALID,19.6436,VALID,293,VALID,0,
2000-07-31, 01:58:00,VALID,916.901,VALID,0,VALID,98.8558,VALID,-0.0849042,VALID,19.6436,VALID,293,VALID,0,
2000-07-31, 01:59:00,VALID,916.904,VALID,0,VALID,98.852,VALID,-0.0679233,VALID,19.6567,VALID,293,VALID,0,
2000-07-31, 02:00:00,VALID,916.904,VALID,0,VALID,98.8571,VALID,-0.0679233,VALID,19.6431,VALID,293,VALID,0,
2000-07-31, 02:01:00,VALID,916.906,VALID,0,VALID,98.852,VALID,-0.0849042,VALID,19.6371,VALID,299,VALID,0,
2000-07-31, 02:02:00,VALID,916.892,VALID,0,VALID,98.88,VALID,-0.0679233,VALID,19.6468,VALID,301,VALID,0,
2000-07-31, 02:03:00,VALID,916.878,VALID,0,VALID,98.9003,VALID,-0.0849042,VALID,19.646,VALID,311,VALID,0,
2000-07-31, 02:04:00,VALID,916.844,VALID,0,VALID,98.9436,VALID,-0.0849042,VALID,19.6629,VALID,313,VALID,0,
2000-07-31, 02:05:00,VALID,916.832,VALID,0,VALID,98.9499,VALID,-0.0679233,VALID,19.6662,VALID,309,VALID,0,
2000-07-31, 02:06:00,VALID,916.811,VALID,0,VALID,98.9639,VALID,-0.0339617,VALID,19.659,VALID,308,VALID,0,
2000-07-31, 02:07:00,VALID,916.807,VALID,0,VALID,98.9614,VALID,-0.0169808,VALID,19.65,VALID,316,VALID,0,
2000-07-31, 02:08:00,VALID,916.795,VALID,0,VALID,98.9461,VALID,-0.0679233,VALID,19.6406,VALID,288,VALID,0.0242599,
2000-07-31, 02:09:00,VALID,916.784,VALID,0,VALID,98.9881,VALID,-0.0849042,VALID,19.6465,VALID,330,VALID,0.191797,
2000-07-31, 02:10:00,VALID,916.791,VALID,0,VALID,98.9804,VALID,-0.0849042,VALID,19.6339,VALID,321,VALID,0.622738,
2000-07-31, 02:11:00,VALID,916.787,VALID,0,VALID,98.9397,VALID,-0.0509425,VALID,19.5852,VALID,325,VALID,1.00946,
2000-07-31, 02:12:00,VALID,916.803,VALID,0,VALID,98.9792,VALID,0,VALID,19.5844,VALID,276,VALID,0.585515,
2000-07-31, 02:13:00,VALID,916.804,VALID,0,VALID,98.9944,VALID,0.0169808,VALID,19.577,VALID,306,VALID,0.34158,
2000-07-31, 02:14:00,VALID,916.797,VALID,0,VALID,99.0466,VALID,0.0169808,VALID,19.5934,VALID,309,VALID,0,
2000-07-31, 02:15:00,VALID,916.798,VALID,0,VALID,99.0682,VALID,0.0679233,VALID,19.5901,VALID,313,VALID,0.141959,
2000-07-31, 02:16:00,VALID,916.788,VALID,0,VALID,99.0974,VALID,0.0169808,VALID,19.5968,VALID,307,VALID,0,
2000-07-31, 02:17:00,VALID,916.78,VALID,0,VALID,99.1165,VALID,0.0339617,VALID,19.61,VALID,283,VALID,0.44778,
2000-07-31, 02:18:00,VALID,916.773,VALID,0,VALID,99.1228,VALID,0.0339617,VALID,19.61,VALID,316,VALID,0.818873,
2000-07-31, 02:19:00,VALID,916.756,VALID,0,VALID,99.072,VALID,0.0849042,VALID,19.5551,VALID,308,VALID,0.61452,
2000-07-31, 02:20:00,VALID,916.726,VALID,0,VALID,99.0923,VALID,0.0339617,VALID,19.5385,VALID,302,VALID,0.526521,
2000-07-31, 02:21:00,VALID,916.718,VALID,0,VALID,99.1508,VALID,0.0509425,VALID,19.571,VALID,301,VALID,0.0316612,
2000-07-31, 02:22:00,VALID,916.724,VALID,0,VALID,99.1724,VALID,0.0339617,VALID,19.5807,VALID,301,VALID,0,
2000-07-31, 02:23:00,VALID,916.724,VALID,0,VALID,99.1991,VALID,0.0339617,VALID,19.6065,VALID,301,VALID,0,
2000-07-31, 02:24:00,VALID,916.739,VALID,0,VALID,99.2106,VALID,0.0339617,VALID,19.6232,VALID,301,VALID,0,
2000-07-31, 02:25:00,VALID,916.747,VALID,0,VALID,99.222,VALID,0.0509425,VALID,19.6224,VALID,301,VALID,0,
2000-07-31, 02:26:00,VALID,916.752,VALID,0,VALID,99.2398,VALID,0.0509425,VALID,19.6418,VALID,301,VALID,0,
2000-07-31, 02:27:00,VALID,916.75,VALID,0,VALID,99.2297,VALID,0.0169808,VALID,19.6455,VALID,291,VALID,0,
2000-07-31, 02:28:00,VALID,916.752,VALID,0,VALID,99.203,VALID,0.0169808,VALID,19.6195,VALID,285,VALID,0,
2000-07-31, 02:29:00,VALID,916.745,VALID,0,VALID,99.2284,VALID,0.0339617,VALID,19.6128,VALID,285,VALID,0,
2000-07-31, 02:30:00,VALID,916.743,VALID,0,VALID,99.2246,VALID,0.0339617,VALID,19.6135,VALID,285,VALID,0,
2000-07-31, 02:31:00,VALID,916.752,VALID,0,VALID,99.2411,VALID,0.0509425,VALID,19.6259,VALID,285,VALID,0,
2000-07-31, 02:32:00,VALID,916.758,VALID,0,VALID,99.2284,VALID,0.0509425,VALID,19.6262,VALID,285,VALID,0,
2000-07-31, 02:33:00,VALID,916.77,VALID,0,VALID,99.2157,VALID,0.0339617,VALID,19.6003,VALID,285,VALID,0,
2000-07-31, 02:34:00,VALID,916.77,VALID,0,VALID,99.2195,VALID,0.0169808,VALID,19.6068,VALID,286,VALID,0,
2000-07-31, 02:35:00,VALID,916.759,VALID,0,VALID,99.2602,VALID,0.0169808,VALID,19.6292,VALID,86,VALID,0.339648,
2000-07-31, 02:36:00,VALID,916.74,VALID,0,VALID,99.2704,VALID,0.0169808,VALID,19.6587,VALID,104,VALID,0.324119,
2000-07-31, 02:37:00,VALID,916.723,VALID,0,VALID,99.2843,VALID,0.0169808,VALID,19.6806,VALID,104,VALID,0.574013,
2000-07-31, 02:38:00,VALID,916.711,VALID,0,VALID,99.3047,VALID,0,VALID,19.7131,VALID,101,VALID,0.528783,
2000-07-31, 02:39:00,VALID,916.679,VALID,0,VALID,99.3174,VALID,0.0339617,VALID,19.7457,VALID,92,VALID,0.620703,
2000-07-31, 02:40:00,VALID,916.658,VALID,0,VALID,99.278,VALID,0.0169808,VALID,19.7067,VALID,96,VALID,0.792146,
2000-07-31, 02:41:00,VALID,916.627,VALID,0,VALID,99.2869,VALID,0,VALID,19.7134,VALID,93,VALID,0.578947,
2000-07-31, 02:42:00,VALID,916.619,VALID,0,VALID,99.2932,VALID,0,VALID,19.737,VALID,105,VALID,0.374578,
2000-07-31, 02:43:00,VALID,916.59,VALID,0,VALID,99.2665,VALID,0,VALID,19.7082,VALID,109,VALID,0.456597,
2000-07-31, 02:44:00,VALID,916.575,VALID,0,VALID,99.2449,VALID,-0.0339617,VALID,19.6853,VALID,91,VALID,0.124566,
2000-07-31, 02:45:00,VALID,916.554,VALID,0,VALID,99.222,VALID,-0.0509425,VALID,19.66,VALID,182,VALID,0.0948933,
2000-07-31, 02:46:00,VALID,916.548,VALID,0,VALID,99.25,VALID,-0.0509425,VALID,19.6726,VALID,220,VALID,0,
2000-07-31, 02:47:00,VALID,916.523,VALID,0,VALID,99.2932,VALID,-0.0339617,VALID,19.6985,VALID,147,VALID,0,
2000-07-31, 02:48:00,VALID,916.505,VALID,0,VALID,99.2996,VALID,-0.0339617,VALID,19.7109,VALID,147,VALID,0,
2000-07-31, 02:49:00,VALID,916.504,VALID,0,VALID,99.2843,VALID,-0.0169808,VALID,19.7181,VALID,160,VALID,0,
2000-07-31, 02:50:00,VALID,916.501,VALID,0,VALID,99.2551,VALID,-0.0169808,VALID,19.6858,VALID,278,VALID,0,
2000-07-31, 02:51:00,VALID,916.483,VALID,0,VALID,99.2449,VALID,-0.0169808,VALID,19.6696,VALID,293,VALID,0,
2000-07-31, 02:52:00,VALID,916.469,VALID,0,VALID,99.2119,VALID,-0.0509425,VALID,19.6309,VALID,303,VALID,0,
2000-07-31, 02:53:00,VALID,916.475,VALID,0,VALID,99.2042,VALID,-0.0509425,VALID,19.6085,VALID,303,VALID,0,
2000-07-31, 02:54:00,VALID,916.464,VALID,0,VALID,99.2335,VALID,-0.0339617,VALID,19.6147,VALID,303,VALID,0,
2000-07-31, 02:55:00,VALID,916.454,VALID,0.2,VALID,99.236,VALID,0,VALID,19.6344,VALID,306,VALID,0,
2000-07-31, 02:56:00,VALID,916.455,VALID,0,VALID,99.2615,VALID,0,VALID,19.6309,VALID,326,VALID,0,
2000-07-31, 02:57:00,VALID,916.437,VALID,0,VALID,99.2653,VALID,-0.0169808,VALID,19.6371,VALID,291,VALID,0,
2000-07-31, 02:58:00,VALID,916.44,VALID,0,VALID,99.264,VALID,-0.0339617,VALID,19.6212,VALID,292,VALID,0,
2000-07-31, 02:59:00,VALID,916.425,VALID,0,VALID,99.222,VALID,-0.0339617,VALID,19.5852,VALID,306,VALID,0,
2000-07-31, 03:00:00,VALID,916.402,VALID,0,VALID,99.2398,VALID,0,VALID,19.5986,VALID,293,VALID,0,
2000-07-31, 03:01:00,VALID,916.396,VALID,0,VALID,99.2322,VALID,0,VALID,19.5752,VALID,314,VALID,0,
2000-07-31, 03:02:00,VALID,916.382,VALID,0,VALID,99.2246,VALID,-0.0169808,VALID,19.566,VALID,316,VALID,0.326225,
2000-07-31, 03:03:00,VALID,916.355,VALID,0,VALID,99.2347,VALID,-0.0509425,VALID,19.566,VALID,326,VALID,0.383024,
2000-07-31, 03:04:00,VALID,916.357,VALID,0,VALID,99.2843,VALID,0,VALID,19.5953,VALID,94,VALID,0,
2000-07-31, 03:05:00,VALID,916.36,VALID,0,VALID,99.2907,VALID,0,VALID,19.6309,VALID,105,VALID,0.179883,
2000-07-31, 03:06:00,VALID,916.342,VALID,0,VALID,99.2932,VALID,-0.0169808,VALID,19.6277,VALID,13,VALID,0.0128205,
2000-07-31, 03:07:00,VALID,916.351,VALID,0,VALID,99.2793,VALID,-0.0339617,VALID,19.5986,VALID,287,VALID,0,
2000-07-31, 03:08:00,VALID,916.332,VALID,0,VALID,99.2653,VALID,-0.0339617,VALID,19.5824,VALID,306,VALID,0.30366,
2000-07-31, 03:09:00,VALID,916.317,VALID,0,VALID,99.2398,VALID,-0.0339617,VALID,19.5397,VALID,312,VALID,0.407227,
2000-07-31, 03:10:00,VALID,916.326,VALID,0,VALID,99.2271,VALID,0,VALID,19.5402,VALID,313,VALID,0.329564,
2000-07-31, 03:11:00,VALID,916.333,VALID,0,VALID,99.2513,VALID,-0.0339617,VALID,19.5437,VALID,285,VALID,0.10074,
2000-07-31, 03:12:00,VALID,916.323,VALID,0,VALID,99.2386,VALID,-0.0169808,VALID,19.5273,VALID,339,VALID,0.728041,
2000-07-31, 03:13:00,VALID,916.307,VALID,0,VALID,99.208,VALID,-0.0169808,VALID,19.4878,VALID,322,VALID,1.17817,
2000-07-31, 03:14:00,VALID,916.28,VALID,0,VALID,99.1928,VALID,-0.0339617,VALID,19.4952,VALID,330,VALID,0.832465,
2000-07-31, 03:15:00,VALID,916.273,VALID,0,VALID,99.208,VALID,-0.0339617,VALID,19.5017,VALID,358,VALID,0.852896,
2000-07-31, 03:16:00,VALID,916.255,VALID,0,VALID,99.2017,VALID,-0.0849042,VALID,19.4922,VALID,329,VALID,0.521115,
2000-07-31, 03:17:00,VALID,916.252,VALID,0,VALID,99.2169,VALID,-0.0339617,VALID,19.5086,VALID,311,VALID,0.656661,
2000-07-31, 03:18:00,VALID,916.241,VALID,0,VALID,99.2055,VALID,-0.0339617,VALID,19.4855,VALID,318,VALID,1.49774,
2000-07-31, 03:19:00,VALID,916.243,VALID,0,VALID,99.1966,VALID,-0.0509425,VALID,19.4562,VALID,323,VALID,1.37481,
2000-07-31, 03:20:00,VALID,916.237,VALID,0,VALID,99.1864,VALID,0,VALID,19.4435,VALID,315,VALID,1.15522,
2000-07-31, 03:21:00,VALID,916.23,VALID,0,VALID,99.1979,VALID,-0.0169808,VALID,19.4433,VALID,332,VALID,0.94264,
2000-07-31, 03:22:00,VALID,916.225,VALID,0,VALID,99.2258,VALID,-0.0339617,VALID,19.4562,VALID,319,VALID,0.542752,
2000-07-31, 03:23:00,VALID,916.218,VALID,0,VALID,99.2246,VALID,-0.0339617,VALID,19.4666,VALID,312,VALID,0.306799,
2000-07-31, 03:24:00,VALID,916.213,VALID,0,VALID,99.2055,VALID,-0.0169808,VALID,19.4333,VALID,4,VALID,0.702902,
2000-07-31, 03:25:00,VALID,916.175,VALID,0,VALID,99.2475,VALID,-0.0169808,VALID,19.4689,VALID,351,VALID,1.07257,
2000-07-31, 03:26:00,VALID,916.157,VALID,0,VALID,99.2831,VALID,-0.0169808,VALID,19.4987,VALID,272,VALID,0.527238,
2000-07-31, 03:27:00,VALID,916.135,VALID,0,VALID,99.2551,VALID,0.0679233,VALID,19.4815,VALID,312,VALID,1.41098,
2000-07-31, 03:28:00,VALID,916.115,VALID,0,VALID,99.2551,VALID,0.0849042,VALID,19.4644,VALID,315,VALID,0.517525,
2000-07-31, 03:29:00,VALID,916.104,VALID,0,VALID,99.2678,VALID,0.0679233,VALID,19.4711,VALID,326,VALID,0.158203,
2000-07-31, 03:30:00,VALID,916.102,VALID,0,VALID,99.2843,VALID,0.0679233,VALID,19.484,VALID,61,VALID,0.583676,
2000-07-31, 03:31:00,VALID,916.082,VALID,0,VALID,99.3034,VALID,0.0849042,VALID,19.4999,VALID,341,VALID,0.348307,
2000-07-31, 03:32:00,VALID,916.076,VALID,0,VALID,99.2869,VALID,0.0849042,VALID,19.4937,VALID,315,VALID,0.262247,
2000-07-31, 03:33:00,VALID,916.072,VALID,0,VALID,99.2907,VALID,0.0849042,VALID,19.4905,VALID,312,VALID,0.359375,
2000-07-31, 03:34:00,VALID,916.074,VALID,0,VALID,99.2932,VALID,0.0679233,VALID,19.4811,VALID,324,VALID,0.0572151,
2000-07-31, 03:35:00,VALID,916.089,VALID,0,VALID,99.3288,VALID,0.0509425,VALID,19.5201,VALID,304,VALID,0.0886719,
2000-07-31, 03:36:00,VALID,916.087,VALID,0,VALID,99.3352,VALID,0.0679233,VALID,19.5424,VALID,321,VALID,0.213742,
2000-07-31, 03:37:00,VALID,916.104,VALID,0,VALID,99.311,VALID,0.101885,VALID,19.526,VALID,293,VALID,0.358141,
2000-07-31, 03:38:00,VALID,916.12,VALID,0,VALID,99.2894,VALID,0.0679233,VALID,19.5099,VALID,311,VALID,0.810238,